When you browse on this site, cookies collect data to enhance your experience and personalize the content and advertising you see.
Visit our Privacy Policy to learn more. By continuing to use the site, you agree to this use of cookies and data.
  • In Latvia
  • List of Countries
  • For 7 days
  • Water Temperature
  • Satellite Maps
  • Weather Map
  • Weather Widgets
  • user-avatar
    Login

    Hourly Weather Lankaran

    Today, 20 May, Monday

    Time Temperature Precipitation Wind Pressure Humidity
    00:00 +16°C° 0.3 mm 3 mps 631 mmHg 50%
    01:00 +15°C° 0 mm 2 mps 631 mmHg 51%
    02:00 +15°C° 0 mm 2 mps 631 mmHg 51%
    03:00 +14°C° 0 mm 2 mps 631 mmHg 52%
    04:00 +15°C° 0 mm 2 mps 631 mmHg 54%
    05:00 +15°C° 0 mm 2 mps 632 mmHg 56%
    06:00 +16°C° 0 mm 2 mps 632 mmHg 58%
    07:00 +17°C° 0 mm 2 mps 632 mmHg 55%
    08:00 +18°C° 0 mm 2 mps 633 mmHg 52%
    09:00 +20°C° 0 mm 2 mps 634 mmHg 49%
    10:00 +20°C° 0 mm 3 mps 634 mmHg 48%
    11:00 +20°C° 0 mm 3 mps 634 mmHg 47%
    12:00 +21°C° 0 mm 3 mps 634 mmHg 47%
    13:00 +20°C° 0 mm 4 mps 633 mmHg 49%
    14:00 +19°C° 0 mm 4 mps 633 mmHg 52%
    15:00 +17°C° 0 mm 5 mps 633 mmHg 55%
    16:00 +17°C° 0 mm 4 mps 632 mmHg 61%
    17:00 +14°C° 0 mm 4 mps 632 mmHg 67%
    18:00 +12°C° 0 mm 4 mps 631 mmHg 73%
    19:00 +11°C° 0 mm 3 mps 631 mmHg 75%
    20:00 +9°C° 0 mm 2 mps 631 mmHg 77%
    21:00 +8°C° 0 mm 2 mps 631 mmHg 79%
    22:00 +9°C° 0 mm 1 mps 631 mmHg 78%
    23:00 +9°C° 0 mm 1 mps 632 mmHg 76%

    Tomorrow, 21 May, Tuesday

    Time Temperature Precipitation Wind Pressure Humidity
    00:00 +8°C° 0 mm 1 mps 632 mmHg 75%
    01:00 +8°C° 0 mm 1 mps 632 mmHg 74%
    02:00 +8°C° 0 mm 1 mps 632 mmHg 73%
    03:00 +8°C° 0 mm 1 mps 632 mmHg 72%
    04:00 +9°C° 0 mm 1 mps 633 mmHg 69%
    05:00 +10°C° 0 mm 1 mps 633 mmHg 65%
    06:00 +10°C° 0 mm 2 mps 634 mmHg 61%
    07:00 +12°C° 0 mm 2 mps 635 mmHg 57%
    08:00 +13°C° 0 mm 3 mps 636 mmHg 54%
    09:00 +14°C° 0 mm 4 mps 636 mmHg 50%
    10:00 +14°C° 0 mm 4 mps 637 mmHg 49%
    11:00 +15°C° 0 mm 5 mps 637 mmHg 49%
    12:00 +15°C° 0 mm 5 mps 637 mmHg 48%
    13:00 +15°C° 0 mm 5 mps 637 mmHg 49%
    14:00 +15°C° 0 mm 5 mps 637 mmHg 51%
    15:00 +14°C° 0 mm 5 mps 637 mmHg 52%
    16:00 +13°C° 0 mm 4 mps 636 mmHg 56%
    17:00 +12°C° 0 mm 3 mps 636 mmHg 59%
    18:00 +10°C° 0 mm 3 mps 636 mmHg 63%
    19:00 +9°C° 0 mm 2 mps 636 mmHg 68%
    20:00 +7°C° 0 mm 2 mps 636 mmHg 73%
    21:00 +7°C° 0 mm 1 mps 636 mmHg 77%
    22:00 +7°C° 0 mm 1 mps 635 mmHg 76%
    23:00 +7°C° 0 mm 1 mps 635 mmHg 75%

    Day after tomorrow, 22 May, Wednesday

    Time Temperature Precipitation Wind Pressure Humidity
    00:00 +7°C° 0 mm 1 mps 635 mmHg 73%
    01:00 +6°C° 0 mm 1 mps 635 mmHg 73%
    02:00 +6°C° 0 mm 1 mps 635 mmHg 72%
    03:00 +6°C° 0 mm 1 mps 634 mmHg 72%
    04:00 +7°C° 0 mm 1 mps 635 mmHg 67%
    05:00 +9°C° 0 mm 1 mps 635 mmHg 62%
    06:00 +10°C° 0 mm 1 mps 636 mmHg 57%
    07:00 +12°C° 0 mm 1 mps 636 mmHg 53%
    08:00 +14°C° 0 mm 1 mps 637 mmHg 48%
    09:00 +15°C° 0 mm 2 mps 637 mmHg 44%
    10:00 +16°C° 0 mm 2 mps 637 mmHg 44%
    11:00 +17°C° 0 mm 2 mps 637 mmHg 43%
    12:00 +18°C° 0 mm 3 mps 637 mmHg 42%
    13:00 +18°C° 0 mm 3 mps 636 mmHg 43%
    14:00 +19°C° 0 mm 3 mps 636 mmHg 44%
    15:00 +19°C° 0 mm 3 mps 635 mmHg 46%
    16:00 +18°C° 0 mm 2 mps 634 mmHg 51%
    17:00 +16°C° 0 mm 2 mps 634 mmHg 56%
    18:00 +15°C° 0 mm 2 mps 633 mmHg 61%
    19:00 +14°C° 0 mm 2 mps 633 mmHg 66%
    20:00 +13°C° 0 mm 2 mps 633 mmHg 70%
    21:00 +12°C° 0 mm 1 mps 633 mmHg 75%
    22:00 +12°C° 0 mm 1 mps 633 mmHg 77%
    23:00 +10°C° 0 mm 2 mps 633 mmHg 79%

    23 May, Thursday

    Time Temperature Precipitation Wind Pressure Humidity
    00:00 +10°C° 0 mm 2 mps 632 mmHg 81%
    01:00 +10°C° 0 mm 2 mps 632 mmHg 80%
    02:00 +10°C° 0 mm 1 mps 632 mmHg 79%
    03:00 +10°C° 0 mm 1 mps 632 mmHg 78%
    04:00 +11°C° 0 mm 1 mps 632 mmHg 73%
    05:00 +12°C° 0 mm 1 mps 633 mmHg 69%
    06:00 +13°C° 0 mm 0 mps 634 mmHg 64%
    07:00 +15°C° 0 mm 1 mps 634 mmHg 61%
    08:00 +16°C° 0 mm 2 mps 635 mmHg 57%
    09:00 +18°C° 0 mm 3 mps 635 mmHg 54%
    10:00 +18°C° 0 mm 3 mps 635 mmHg 53%
    11:00 +19°C° 0 mm 3 mps 635 mmHg 52%
    12:00 +19°C° 0 mm 4 mps 635 mmHg 51%
    13:00 +19°C° 0 mm 4 mps 635 mmHg 53%
    14:00 +19°C° 0 mm 4 mps 634 mmHg 56%
    15:00 +18°C° 0 mm 4 mps 634 mmHg 58%
    16:00 +17°C° 0.1 mm 4 mps 633 mmHg 65%
    17:00 +16°C° 0.1 mm 3 mps 633 mmHg 72%
    18:00 +13°C° 0.1 mm 3 mps 632 mmHg 78%
    19:00 +13°C° 0 mm 2 mps 632 mmHg 82%
    20:00 +12°C° 0 mm 2 mps 632 mmHg 85%
    21:00 +11°C° 0 mm 1 mps 632 mmHg 88%
    22:00 +11°C° 0 mm 1 mps 632 mmHg 86%
    23:00 +10°C° 0 mm 1 mps 632 mmHg 84%

    24 May, Friday

    Time Temperature Precipitation Wind Pressure Humidity
    00:00 +10°C° 0 mm 1 mps 631 mmHg 82%
    01:00 +10°C° 0 mm 1 mps 631 mmHg 82%
    02:00 +10°C° 0 mm 1 mps 631 mmHg 82%
    03:00 +10°C° 0 mm 1 mps 631 mmHg 82%
    04:00 +11°C° 0 mm 1 mps 632 mmHg 79%
    05:00 +12°C° 0 mm 1 mps 633 mmHg 76%
    06:00 +13°C° 0 mm 1 mps 634 mmHg 74%
    07:00 +15°C° 0 mm 1 mps 634 mmHg 69%
    08:00 +16°C° 0 mm 2 mps 635 mmHg 64%
    09:00 +17°C° 0 mm 3 mps 635 mmHg 60%
    10:00 +18°C° 0 mm 3 mps 635 mmHg 58%
    11:00 +19°C° 0 mm 3 mps 635 mmHg 57%
    12:00 +19°C° 0 mm 3 mps 635 mmHg 55%
    13:00 +19°C° 0 mm 3 mps 635 mmHg 56%
    14:00 +20°C° 0 mm 3 mps 635 mmHg 56%
    15:00 +20°C° 0 mm 3 mps 634 mmHg 57%
    16:00 +18°C° 0 mm 3 mps 634 mmHg 63%
    17:00 +17°C° 0 mm 3 mps 634 mmHg 69%
    18:00 +16°C° 0 mm 2 mps 634 mmHg 75%
    19:00 +15°C° 0 mm 2 mps 634 mmHg 79%
    20:00 +14°C° 0 mm 1 mps 634 mmHg 83%
    21:00 +13°C° 0 mm 1 mps 633 mmHg 87%
    22:00 +13°C° 0 mm 1 mps 633 mmHg 85%
    23:00 +13°C° 0 mm 1 mps 633 mmHg 82%

    25 May, Saturday

    Time Temperature Precipitation Wind Pressure Humidity
    00:00 +13°C° 0 mm 2 mps 633 mmHg 80%
    01:00 +13°C° 0 mm 2 mps 633 mmHg 77%
    02:00 +13°C° 0 mm 2 mps 633 mmHg 74%
    03:00 +13°C° 0 mm 2 mps 633 mmHg 71%
    04:00 +14°C° 0 mm 2 mps 634 mmHg 67%
    05:00 +16°C° 0 mm 2 mps 634 mmHg 62%
    06:00 +18°C° 0 mm 1 mps 635 mmHg 57%
    07:00 +19°C° 0 mm 2 mps 636 mmHg 51%
    08:00 +21°C° 0 mm 2 mps 636 mmHg 45%
    09:00 +24°C° 0 mm 2 mps 637 mmHg 39%
    10:00 +25°C° 0 mm 2 mps 637 mmHg 37%
    11:00 +26°C° 0 mm 2 mps 637 mmHg 35%
    12:00 +27°C° 0 mm 2 mps 637 mmHg 33%
    13:00 +27°C° 0 mm 3 mps 636 mmHg 33%
    14:00 +27°C° 0 mm 3 mps 636 mmHg 32%
    15:00 +27°C° 0 mm 3 mps 636 mmHg 32%
    16:00 +26°C° 0 mm 2 mps 635 mmHg 36%
    17:00 +25°C° 0 mm 2 mps 635 mmHg 39%
    18:00 +24°C° 0 mm 2 mps 634 mmHg 43%
    19:00 +23°C° 0 mm 2 mps 634 mmHg 38%
    20:00 +21°C° 0 mm 2 mps 634 mmHg 33%
    21:00 +20°C° 0 mm 3 mps 634 mmHg 28%
    22:00 +19°C° 0.2 mm 3 mps 633 mmHg 29%
    23:00 +19°C° 0.2 mm 3 mps 633 mmHg 31%
    Show more